• Join FlightAware (Why Join?)
  • Login
  • US Flag 
 
07:34PM EST


 

Airport Tracker/Info


-or-


 

Live Flight TrackerFlight Track Log ✈ N6746T ✈ 20-Jun-2013 ✈ KTOA - KHMT

Flight Track Log - Related Links

Times and Time Zones

All times are in EDT time to prevent confusion due to time zone crossing. See the N6746T flight status page for this flight to view local times or setup timezone preferences in your user account.

Time Position Orientation Groundspeed Altitude Reporting Facility
EDT Latitude Longitude Course Direction KTS MPH feet Rate Location/Type
12:07PM 33.8000 -118.3167 90° East 97 112 1,400  Level Southern California TRACON
12:08PM 33.8000 -118.2667 90° East 129 148 2,400 780 Climbing Southern California TRACON
12:09PM 33.7936 -118.2542 122° Southeast 112 129 2,800 720 Climbing Los Angeles Center
12:10PM 33.7836 -118.2072 104° East 119 137 3,800 720 Climbing Los Angeles Center
12:11PM 33.7767 -118.1547 99° East 128 147 4,500 420 Climbing Los Angeles Center
12:12PM 33.7725 -118.1050 96° East 143 165 4,700 120 Climbing Los Angeles Center
12:13PM 33.7669 -118.0500 97° East 161 185 4,800 360 Climbing Los Angeles Center
12:14PM 33.7667 -118.0000 90° East 166 191 5,400 360 Climbing Southern California TRACON
12:15PM 33.7500 -117.9500 112° Southeast 158 182 5,500  Climbing Southern California TRACON
12:16PM 33.7333 -117.9000 112° Southeast 169 194 5,500  Level Southern California TRACON
12:17PM 33.7333 -117.8333 90° East 171 197 5,500 -120 Level Southern California TRACON
12:18PM 33.7167 -117.7833 112° Southeast 178 205 5,300 -60 Descending Southern California TRACON
12:19PM 33.7000 -117.7333 112° Southeast 175 201 5,400  Climbing Southern California TRACON
12:20PM 33.6833 -117.6833 112° Southeast 172 198 5,400  Level Southern California TRACON
12:21PM 33.6833 -117.6167 90° East 169 194 5,500 60 Climbing Southern California TRACON
12:21PM 33.6764 -117.5994 116° Southeast 171 197 5,500  Level Los Angeles Center
12:22PM 33.6872 -117.5350 79° East 166 191 5,500  Level Los Angeles Center
12:23PM 33.7081 -117.4839 64° Northeast 170 196 5,500 -180 Level Los Angeles Center
12:24PM 33.7056 -117.4306 93° East 172 198 5,200 -360 Descending Los Angeles Center
12:26PM 33.7044 -117.3686 91° East 178 205 4,800 -300 Descending Los Angeles Center
12:27PM 33.6994 -117.2950 95° East 181 208 4,600 -240 Descending Los Angeles Center
12:29PM 33.7112 -117.2027 90° East  Level Estimated
12:36PM 33.7333 -117.0167 90° East  Level FlightAware Approximate
12:37PM 33.7340 -117.0225 90° East  Level Estimated
12:38PM 33.7333 -117.0167 90° East  Level FlightAware Approximate
12:39PM 33.7340 -117.0225 90° East  Level Estimated